Flag for Mexico Weather past 2 weeks in Ojinaga, Chihuahua, Mexico

Now
84 °F

Sunny.


Feels Like: 82 °F
Forecast: 60 / 92 °F
Wind: 15 mph from Southwest

Location: Marfa Municipal Airport

Current Time: Sep 30, 2014 at 5:09:58 PM

Latest Report: Sep 30, 2014 at 4:35 PM


Visibility: 10 mi

Pressure: 29.96 "Hg

Humidity: 29%

Dew point: 48 °F

Location of OjinagaLocation

Historic Weather in Ojinaga — Graph

°F

Ojinaga temperature yesterday

Maximum temperature yesterday: 82 °F (at 2:55 PM)
Minimum temperature yesterday: 50 °F (at 5:15 AM)
Average temperature yesterday: 65 °F

Past Weeks' High & Low Weather Summary

 TemperatureHumidityPressure
High84 °F (Sep 30, 2:35 PM)100% (Sep 16, 1:35 AM)30.33 "Hg (Sep 16, 1:35 AM)
Low48 °F (Sep 28, 3:55 AM)33% (Sep 30, 3:35 PM)29.96 "Hg (Sep 30, 3:55 PM)
Average66 °F78%30.18 "Hg
* Reported Sep 15 3:15 PM — Sep 30 3:55 PM, Ojinaga, Weather by CustomWeather, © 2014

Note: Actual official high and low records may vary slightly from our data, if they occured in-between our weather recording intervals... More about our weather records

Advertising

Ojinaga weather history for previous 24 hours

 ConditionsComfort  
Time TempWeatherWind HumidityBarometerVisibility
3:55 PM
Sep 30
84 °FPartly sunny.10 mph33%29.96 "Hg10 mi
3:35 PM84 °FBroken clouds.14 mph33%29.97 "Hg10 mi
3:15 PM84 °FScattered clouds.12 mph35%29.97 "Hg10 mi
2:35 PM84 °FBroken clouds.8 mph35%29.98 "Hg10 mi
2:15 PM82 °FBroken clouds.10 mph37%29.99 "Hg10 mi
1:55 PM82 °FPassing clouds.10 mph40%30.00 "Hg10 mi
1:35 PM82 °FSunny.7 mph40%30.01 "Hg10 mi
12:55 PM82 °FSunny.6 mph40%30.03 "Hg10 mi
12:35 PM81 °FSunny.6 mph39%30.03 "Hg10 mi
11:55 AM81 °FSunny.12 mph42%30.05 "Hg10 mi
11:35 AM79 °FSunny.9 mph48%30.06 "Hg10 mi
11:15 AM79 °FSunny.9 mph48%30.06 "Hg10 mi
10:55 AM75 °FSunny.No wind54%30.07 "Hg10 mi
10:35 AM73 °FSunny.6 mph57%30.07 "Hg10 mi
10:15 AM72 °FSunny.5 mph61%30.08 "Hg10 mi
9:55 AM72 °FSunny.No wind61%30.08 "Hg10 mi
9:35 AM68 °FSunny.No wind69%30.08 "Hg10 mi
9:15 AM66 °FSunny.No wind73%30.08 "Hg10 mi
8:55 AM64 °FSunny.No wind78%30.07 "Hg10 mi
8:35 AM64 °FSunny.No wind78%30.07 "Hg10 mi
8:15 AM63 °FSunny.No wind83%30.07 "Hg10 mi
7:55 AM59 °FSunny.No wind94%30.07 "Hg10 mi
7:35 AM55 °FClear.3 mph94%30.06 "Hg8 mi
7:15 AM54 °FClear.6 mph94%30.06 "Hg10 mi
6:55 AM54 °FClear.5 mph94%30.06 "Hg10 mi
6:35 AM54 °FClear.6 mph94%30.06 "Hg10 mi
6:15 AM54 °FClear.5 mph94%30.05 "Hg10 mi
5:55 AM54 °FClear.3 mph94%30.05 "Hg10 mi
5:35 AM52 °FClear.5 mph100%30.04 "Hg10 mi
4:55 AM54 °FClear.No wind94%30.04 "Hg10 mi
4:35 AM54 °FClear.5 mph94%30.04 "Hg10 mi
4:15 AM54 °FClear.3 mph94%30.04 "Hg10 mi
3:55 AM54 °FClear.No wind94%30.05 "Hg10 mi
3:35 AM55 °FClear.No wind94%30.05 "Hg10 mi
3:15 AM55 °FClear.5 mph94%30.06 "Hg10 mi
2:55 AM55 °FClear.6 mph94%30.06 "Hg10 mi
2:35 AM57 °FClear.5 mph94%30.06 "Hg10 mi
2:15 AM57 °FClear.5 mph88%30.06 "Hg10 mi
1:55 AM55 °FClear.5 mph94%30.06 "Hg10 mi
1:35 AM55 °FClear.No wind94%30.05 "Hg10 mi
1:15 AM55 °FClear.3 mph94%30.05 "Hg10 mi
12:55 AM55 °FClear.3 mph94%30.06 "Hg10 mi
12:35 AM57 °FClear.No wind88%30.06 "Hg10 mi
12:15 AM59 °FClear.No wind88%30.07 "Hg10 mi
11:55 PM
Sep 29
61 °FClear.5 mph83%30.07 "Hg10 mi
11:35 PM63 °FClear.No wind77%30.07 "Hg10 mi
11:15 PM63 °FClear.3 mph77%30.07 "Hg10 mi
10:55 PM63 °FClear.3 mph77%30.07 "Hg10 mi
10:35 PM64 °FClear.6 mph73%30.07 "Hg10 mi
10:15 PM64 °FClear.No wind73%30.07 "Hg10 mi
9:55 PM64 °FClear.6 mph73%30.07 "Hg10 mi
9:35 PM66 °FClear.8 mph68%30.08 "Hg10 mi
9:15 PM66 °FClear.7 mph68%30.08 "Hg10 mi
8:55 PM66 °FClear.No wind68%30.08 "Hg10 mi
8:35 PM66 °FClear.5 mph68%30.07 "Hg10 mi
8:15 PM68 °FClear.9 mph64%30.06 "Hg10 mi
7:55 PM70 °FClear.7 mph60%30.06 "Hg10 mi
7:35 PM70 °FSunny.10 mph60%30.05 "Hg10 mi
7:15 PM72 °FSunny.9 mph57%30.06 "Hg10 mi
6:55 PM73 °FSunny.10 mph50%30.05 "Hg10 mi
6:35 PM75 °FSunny.8 mph44%30.05 "Hg10 mi
6:15 PM75 °FSunny.7 mph47%30.05 "Hg10 mi
5:55 PM79 °FSunny.8 mph42%30.05 "Hg10 mi
5:35 PM79 °FPassing clouds.10 mph42%30.06 "Hg10 mi
5:15 PM81 °FSunny.7 mph39%30.06 "Hg10 mi
Weather by CustomWeather, © 2014

See weather overviewHow to use our weather pages